THORAD AGENA D DEB, 4739

Orbit data source: Space-Track

THORAD AGENA D DEB, 4739 is space debris in SSO originally from a launch on Wed, 08 Apr 1970 UTC launched from the Air Force Western Test Range (AFWTR). Debris objects in space refer to the collection of defunct objects orbiting the Earth. Examples of debris include non-operational satellites, rocket bodies, and fragments generated from explosions, collisions, or faulty payload assembly.

Loading next visibility...
Identifier
4739, 1970-025CN
Orbit
SSO
Country
Flag of USUS
Related business
Manufacturer
Unknown
Mission
Spacecraft
Bus & Motor
Unknown
Mass
Unknown
Launch date (UTC)
1970-04-08 (56 years ago)
Launch vehicle
Unknown
Launch site
Air Force Western Test Range (AFWTR)
Object type
Payload
Rocket body
Debris
Shape & HBR
Unknown shape, 0.1 m
Radar Cross Section
Small (<0.1 m²)

Expand to show TLE details & history
Last TLE update: 7 hours ago

TLE from 7 hours ago
0 THORAD AGENA D DEB
1  4739U 70025CN  26035.53333802  .00002274  00000-0  16366-2 0  9999
2  4739  99.9518 253.8174 0003290  38.5072 340.4401 13.98030669795636
Epoch: 2026-02-04T12:48Z
TLE epoch observation values (Epoch: 2026-02-04T12:48:00.404Z)
Latitude
18.63613°
Longitude
-76.2573°
Altitude
900.694 km
Speed
7.404 km/s
True Right ascension
16h 41m 46s
True Declination
18° 32' 03"
Sunlit
Object was in daylight at epoch
Visualization orbit readout
Latitude
Unknown
Longitude
Unknown
Altitude
Unknown
Speed
Unknown
Apparent Right ascension
Unknown
Apparent Declination
Unknown
Sunlit
N/A
Visualization observer readout
Local Sidereal Time
21:22:09
Azimuth
Unknown
Elevation
Unknown
Doppler factor
Unknown
Orbital elements
Apogee altitude
900.267 km
Perigee altitude
895.48 km
Semi-major axis
7,276.011 km
Eccentricity
0.00033
Inclination
99.9518°
RAAN
253.8174°
Arg. of periapsis
38.5072°
True anomaly
340.42747°
Mean anomaly
340.4401°
Eccentric anomaly
340.43379°
Mean motion
3.49706 °/min
Orbital period
102.94 mins
BSTAR
0.0016366
Loading maneuver chart data...
Computing Atmospheric mass density...

Documentation

Showing up to 5 results
|